Theta_e
307 307 308 307 307 307 307 307 307 308 309 309 309 309 305 304 304 308 308 307 306 303 304 311 310 322 325 327 325 326 326 326 324 321 321 321 323 325 328 331 331 332 334 332 336
306 307 307 307 307 307 306 304 304 307 309 310 311 308 307 307 309 310 310 307 303 306 312 310 311 317 325 327 328 329 329 328 325 323 322 321 323 324 329 330 332 331 332 332 333
306 306 307 306 306 307 307 303 302 305 307 308 309 307 307 307 308 312 315 309 305 307 310 312 310 313 321 324 328 330 331 328 327 325 322 322 323 324 327 331 332 333 333 333 332
306 306 306 306 305 304 304 303 304 305 306 305 306 308 307 308 307 311 313 307 308 307 311 313 313 314 317 322 324 329 329 330 329 327 325 324 324 324 323 326 329 330 332 331 332
305 305 306 305 305 303 304 305 306 306 306 306 306 307 309 309 307 304 306 309 309 309 307 309 315 313 315 318 321 325 326 327 328 328 328 327 327 327 326 326 326 328 329 331 332
304 304 304 305 303 302 304 306 306 306 308 307 309 307 310 309 306 307 308 310 310 309 309 309 311 315 314 315 319 321 323 325 325 327 328 328 329 330 330 328 329 330 331 331 330
303 303 304 305 305 303 304 306 305 306 308 308 307 310 311 308 307 309 310 310 310 310 310 310 309 310 316 316 315 318 321 323 325 326 326 329 331 331 330 330 332 331 330 330 330
300 300 303 304 303 302 304 305 305 306 307 308 308 310 311 307 308 310 309 310 310 310 309 310 309 309 309 313 316 316 318 321 322 324 326 326 331 329 329 330 331 330 330 329 330
298 299 301 304 302 302 305 305 305 306 308 309 312 311 309 308 309 308 309 310 309 309 309 309 309 310 308 311 315 317 318 320 321 323 324 327 329 329 329 329 330 331 330 329 330
300 300 303 305 303 302 305 305 306 311 311 311 311 313 309 308 308 308 309 309 310 310 310 311 310 310 309 309 314 316 317 318 320 321 322 323 327 327 327 328 329 329 329 330 330
302 302 303 304 301 303 307 309 312 311 309 309 309 309 308 308 308 309 309 309 310 311 311 310 311 311 310 310 310 314 317 318 319 320 323 323 325 325 326 326 328 328 329 330 330
303 303 304 305 301 304 308 309 309 308 310 309 308 308 307 308 309 309 309 310 311 311 311 311 311 311 310 309 309 312 315 318 318 319 320 323 324 324 325 326 327 328 328 328 329
302 304 305 305 302 307 309 308 308 308 310 308 308 308 308 308 309 309 310 311 311 311 311 311 311 310 310 309 309 312 314 317 318 319 320 321 323 324 324 325 326 326 326 326 326
301 303 305 303 307 307 309 307 308 308 312 307 309 309 308 308 309 308 310 310 311 313 313 311 311 310 310 309 309 310 311 314 317 319 322 321 324 324 323 324 325 325 325 325 325
299 302 303 303 308 310 309 308 307 308 312 307 308 307 308 309 308 310 309 311 313 313 313 312 309 309 309 309 308 309 310 313 315 318 320 321 323 322 322 323 324 324 324 324 323
300 305 303 306 308 309 308 308 307 313 311 309 308 308 308 308 308 308 308 311 312 313 313 312 312 309 308 308 309 310 310 313 316 317 320 319 321 321 321 322 322 322 322 321 321
302 306 307 306 310 308 308 308 313 313 309 310 309 308 308 309 308 308 308 310 314 315 313 314 312 310 308 309 309 311 311 318 320 320 320 318 319 320 321 320 320 321 319 320 321
303 307 308 309 309 309 308 310 315 310 309 309 308 309 309 309 309 308 309 309 313 314 316 314 316 311 309 309 309 311 312 314 317 316 317 316 318 319 319 320 320 319 319 320 324
305 310 311 310 308 308 311 316 311 309 308 309 309 309 309 308 308 308 308 309 311 311 313 316 313 310 311 309 309 309 310 311 313 314 315 316 317 317 318 318 319 319 319 322 326
306 311 311 308 308 309 311 310 310 309 308 309 311 310 310 310 309 309 308 309 310 309 310 312 317 312 311 312 311 309 310 310 312 314 315 316 317 318 318 318 318 318 319 321 324
308 312 308 307 308 310 314 311 310 309 308 309 310 310 310 310 309 309 308 308 309 309 310 310 313 313 311 313 314 309 310 311 311 311 313 314 316 317 320 320 320 320 320 320 321
308 312 308 306 310 310 309 307 306 309 309 309 310 310 310 309 309 309 309 309 308 309 310 311 312 314 312 310 310 311 313 313 310 313 312 315 319 318 320 320 319 319 320 320 320
308 306 307 306 311 308 306 307 308 309 308 309 310 309 309 309 311 309 309 308 308 309 311 312 312 313 311 312 312 310 310 312 313 315 316 313 316 317 317 317 317 318 319 319 319
307 311 309 306 306 306 307 308 308 307 308 308 310 309 310 311 309 311 309 308 308 308 309 310 313 313 314 312 312 311 312 311 314 315 313 314 314 317 317 316 316 317 319 319 318
306 308 306 311 310 308 308 306 308 309 309 308 309 309 310 311 311 310 310 310 309 309 310 310 313 312 311 311 310 311 310 311 312 313 314 314 313 314 315 316 316 317 317 316 317
307 307 306 306 306 305 306 307 307 308 306 308 310 309 309 310 309 310 309 311 312 310 311 311 315 312 312 310 311 310 310 311 311 311 312 312 312 313 313 313 314 314 315 316 317
303 300 303 306 307 306 307 307 307 306 307 307 308 309 311 310 309 309 309 310 310 311 311 313 313 314 314 310 310 311 310 310 310 311 311 312 312 313 314 314 314 315 315 315 316
Wind_Speed
16 17 17 17 18 17 17 16 16 15 16 17 18 19 19 20 21 11 8 4 5 10 11 10 9 10 13 16 17 13 13 17 21 17 15 10 16 13 5 9 6 3 2 5 4
17 17 18 18 18 19 19 18 16 14 14 15 17 18 18 19 17 1 3 6 12 12 7 10 12 12 13 17 13 16 16 26 17 13 12 18 16 14 7 13 12 8 9 6 7
16 17 19 19 19 20 18 16 16 15 15 15 15 17 17 15 7 5 6 8 12 14 6 7 12 14 19 16 23 23 26 21 21 13 14 19 19 17 15 17 14 11 12 5 2
18 19 20 20 20 19 18 15 15 15 17 17 15 14 14 6 4 4 2 18 17 8 6 6 7 17 19 27 22 26 26 27 24 16 14 22 20 24 23 21 19 6 10 11 12
19 19 19 20 20 18 16 12 13 16 17 15 11 11 7 6 4 0 10 11 6 6 6 8 11 14 25 20 26 29 30 23 23 21 19 17 25 23 24 23 20 19 18 18 17
21 21 21 22 21 18 15 12 12 16 14 9 6 4 5 2 4 5 9 8 6 8 5 7 9 11 18 25 26 27 27 30 25 20 21 24 26 22 22 23 22 21 22 21 18
22 23 22 22 22 19 16 13 16 12 8 6 4 1 5 4 5 9 9 9 9 7 8 6 12 15 8 17 24 27 28 25 24 29 28 15 27 37 27 26 23 21 19 20 19
25 26 25 23 22 18 16 15 17 7 6 2 1 3 4 3 8 10 11 12 7 8 10 10 8 16 20 17 22 20 25 25 32 24 28 22 30 34 26 25 29 26 22 21 21
25 27 26 24 22 17 15 19 9 2 2 2 2 5 2 6 9 14 8 12 14 13 9 10 10 15 15 20 19 23 25 31 33 32 25 25 35 36 27 21 22 21 21 21 19
25 28 25 23 20 15 15 10 2 5 5 3 4 6 4 8 15 18 11 8 7 9 11 9 9 14 16 19 25 27 30 30 30 27 26 26 34 26 22 19 25 23 22 22 20
27 27 25 23 17 11 13 4 4 6 7 9 8 5 7 10 18 9 10 8 8 9 11 13 15 18 21 22 30 28 31 31 28 26 26 32 33 31 28 25 21 19 18 18 18
27 27 25 23 13 4 6 4 5 5 8 8 11 10 13 6 9 10 2 7 7 14 15 12 20 21 22 22 27 29 31 32 21 21 25 26 32 29 30 31 28 27 24 23 22
31 29 25 20 4 2 4 6 3 8 6 4 3 6 4 6 11 11 5 10 14 20 19 20 25 20 16 18 23 26 27 28 28 19 17 22 30 31 29 28 25 21 22 22 21
33 29 22 5 2 1 2 2 7 4 5 5 4 3 7 11 12 10 3 9 13 17 15 15 16 21 20 22 21 27 28 26 27 18 18 21 22 26 26 26 27 25 22 22 20
35 26 14 5 2 1 3 4 4 5 4 2 3 4 10 6 9 4 5 7 16 16 10 19 17 14 18 23 24 25 25 23 27 25 20 22 14 17 16 19 19 18 19 19 19
37 17 3 3 2 1 5 5 5 6 0 2 2 9 11 8 8 5 12 11 14 14 17 22 19 12 16 21 18 17 23 18 19 21 21 29 21 14 18 21 18 18 17 16 17
35 6 2 1 4 3 4 5 5 5 3 2 6 12 14 7 9 10 15 10 4 8 14 12 19 18 14 22 13 18 16 11 14 16 19 28 24 18 7 8 11 12 3 6 8
28 1 0 1 5 4 4 4 4 5 5 8 9 16 7 9 8 15 13 12 2 7 10 9 7 13 18 21 15 20 18 13 16 17 16 19 14 17 19 24 14 8 1 1 6
14 1 2 2 3 6 6 4 5 6 5 9 15 6 2 6 9 13 14 9 3 7 8 6 4 5 11 17 22 18 19 20 25 19 14 18 20 21 8 10 10 8 3 6 9
9 4 2 7 5 8 5 4 4 3 7 8 9 3 11 15 12 13 10 1 5 9 12 5 10 7 5 15 19 20 14 17 8 18 17 14 19 12 22 23 19 13 4 7 11
5 3 6 7 4 4 3 3 6 4 5 5 11 14 14 13 10 13 7 12 2 13 14 12 6 3 8 6 5 13 13 11 15 15 11 13 15 15 13 12 12 11 7 10 13
6 2 7 7 3 1 4 6 4 5 4 8 8 9 9 10 13 13 11 8 14 13 17 7 7 11 12 7 6 7 10 13 10 17 14 10 5 5 15 15 9 7 8 12 14
6 3 4 5 2 4 4 7 4 7 6 5 6 7 10 12 6 8 12 12 14 15 5 9 4 9 3 7 9 8 10 15 13 9 15 15 4 11 12 7 3 9 11 13 15
4 3 1 3 1 6 8 2 5 4 10 5 12 12 11 12 12 10 16 10 10 13 15 9 12 14 13 14 8 8 10 9 12 12 15 16 18 16 14 10 12 14 14 17 17
3 2 3 3 0 8 8 5 8 5 4 10 6 8 11 8 19 20 13 18 19 19 19 6 11 16 16 15 14 16 16 17 19 18 17 18 18 18 19 18 17 19 18 21 18
4 4 3 5 6 7 2 2 6 4 10 10 12 13 14 16 18 24 20 16 7 11 9 7 6 11 14 14 15 19 20 22 21 20 19 21 24 23 22 22 22 22 19 17 16
3 2 2 5 4 4 3 6 12 15 10 8 12 16 17 18 16 22 21 20 17 10 10 5 5 5 12 5 11 14 19 19 19 20 17 20 18 17 19 20 19 21 18 16 17
Wind_Direction
354 350 346 344 342 339 338 335 335 335 333 331 328 324 325 326 329 304 278 357 332 335 305 280 251 213 219 226 227 227 240 246 239 226 246 262 254 245 264 252 213 335 78 61 161
350 347 343 340 337 336 335 335 335 333 330 328 325 323 327 327 321 35 104 65 22 355 316 254 234 206 217 218 212 217 227 242 249 252 230 239 242 237 236 224 233 216 157 90 104
347 343 339 338 337 336 333 333 335 333 328 324 321 320 327 331 267 93 85 354 345 355 305 299 252 237 225 225 218 223 241 243 239 242 249 250 246 238 236 239 230 223 187 238 306
346 342 339 337 337 338 340 338 334 334 329 326 323 323 324 312 343 117 296 333 335 332 302 281 232 227 230 230 227 238 247 246 251 229 242 249 258 253 247 245 249 228 233 270 272
345 341 337 334 334 336 339 339 335 334 324 324 335 336 346 260 48 149 328 342 6 348 272 272 256 232 238 238 236 236 241 250 245 248 244 257 252 254 253 247 252 253 261 263 272
346 342 338 335 334 339 341 341 333 328 316 334 319 350 308 264 354 325 322 314 333 335 327 267 257 269 275 254 246 240 245 246 251 248 241 247 254 248 244 250 254 253 254 259 260
348 344 339 333 330 332 334 335 330 317 308 337 334 315 275 7 331 329 322 303 301 291 292 295 268 248 271 258 254 256 259 261 241 234 244 246 260 246 245 254 251 248 248 254 257
347 345 341 336 334 334 333 334 330 302 297 293 316 276 288 265 319 328 330 320 286 277 272 283 257 253 251 270 282 257 243 245 240 231 233 223 256 254 225 233 246 245 247 248 252
346 343 338 335 334 334 334 330 327 282 196 165 173 266 131 303 329 338 329 315 320 294 264 272 247 247 238 237 251 241 239 232 240 228 224 213 242 250 254 236 232 247 247 247 251
342 342 336 332 332 335 337 341 355 102 116 216 253 238 224 342 335 321 313 302 281 301 262 245 248 252 232 231 233 231 230 237 243 226 228 222 243 251 243 237 243 242 248 252 255
339 337 334 331 333 342 346 272 242 181 221 294 329 292 304 312 306 292 295 273 250 249 266 255 248 255 261 252 251 260 265 250 245 248 228 222 239 244 245 248 244 244 241 241 248
338 334 331 326 329 351 353 25 41 343 295 276 265 258 274 281 294 315 275 277 278 289 295 258 250 254 271 274 257 245 252 256 261 268 242 234 237 243 246 246 248 250 251 257 261
345 334 330 324 335 43 359 43 26 336 271 323 227 265 306 242 288 298 263 300 289 291 281 268 263 269 266 259 254 253 250 247 251 265 242 248 247 245 240 243 251 257 257 261 266
346 338 333 8 80 348 89 76 332 296 272 141 186 174 275 307 257 303 261 299 290 295 298 276 280 261 255 254 251 248 245 244 252 236 226 216 248 235 232 242 244 246 251 254 257
348 340 340 125 41 327 67 314 314 209 279 98 160 349 302 284 300 134 263 285 293 307 278 268 287 253 253 254 248 254 240 241 230 245 249 244 239 251 252 244 241 242 252 253 256
348 340 19 61 139 38 325 304 188 230 271 163 259 322 317 313 312 295 321 234 290 299 272 269 265 259 266 302 239 258 225 238 243 230 233 236 246 248 245 245 245 238 249 257 258
346 334 122 160 15 325 322 201 249 272 98 42 323 323 315 311 318 330 325 317 358 334 352 323 253 227 251 278 238 267 210 205 216 217 221 223 231 238 210 7 259 244 247 248 259
344 330 177 319 316 315 277 231 279 59 334 339 312 307 295 357 335 332 316 308 155 314 300 337 311 273 200 244 266 206 228 226 217 210 217 229 223 226 239 250 263 267 144 251 342
353 275 194 351 322 311 268 238 347 0 350 321 310 295 320 305 327 318 320 319 323 22 339 308 308 282 273 219 254 242 234 236 246 263 247 209 214 257 221 211 207 168 153 21 1
334 252 107 328 307 276 266 304 301 314 309 305 307 315 322 323 321 329 319 96 323 323 338 291 295 271 267 305 249 256 256 232 225 232 223 219 210 223 210 224 228 236 77 12 2
310 244 36 342 281 268 277 330 302 321 311 303 310 296 299 314 306 301 284 293 273 322 318 307 279 277 238 239 280 221 237 250 253 227 242 225 212 203 146 120 112 102 58 14 13
323 256 9 348 260 301 302 341 346 285 274 287 282 289 295 306 298 287 277 274 325 319 307 359 295 290 285 171 182 260 280 262 234 224 247 293 98 137 122 126 114 71 23 8 359
331 307 7 320 354 325 334 301 267 291 308 295 284 292 299 298 298 283 280 302 301 301 327 359 283 311 251 178 193 231 247 277 277 305 256 231 174 139 152 167 44 1 352 345 343
319 326 58 50 61 333 340 308 297 283 281 265 276 288 278 287 280 271 286 289 285 293 309 299 278 266 278 305 313 291 280 243 262 268 242 247 256 183 202 293 316 319 320 321 326
355 36 4 319 316 334 303 280 300 318 288 306 280 266 296 288 304 286 299 311 294 287 268 255 267 267 267 276 279 276 272 264 252 254 264 268 264 266 278 293 306 301 299 299 304
335 344 330 286 293 325 242 291 301 299 312 291 277 298 308 291 286 290 300 292 270 292 288 236 262 280 280 268 263 272 262 252 247 247 253 258 262 269 274 277 279 284 289 299 308
39 356 301 303 301 301 322 332 321 322 300 260 293 294 291 298 308 290 282 273 258 259 262 278 277 287 266 318 300 275 254 252 253 254 258 259 266 275 277 277 272 277 284 293 296